Location: Bergnershof
(48.9468°N, 10.9431°E)
Time: 22:49:32
(UTC+00:00)

Cosmos 1354 Rocket - Pass Details

Date: 03 March 2021
Orbit: 765 x 782 km, 74.0° (Epoch: 13 April)

Event Time Altitude Azimuth Distance (km) Brightness Sun altitude
Rises 18:18:30 0° 336° (NNW) 3,253 7.7 -13.2°
Reaches altitude 10° 18:20:54 10° 337° (NNW) 2,320 6.9 -13.6°
Maximum altitude 18:26:11 89° 72° (ENE) 774 4.0 -14.4°
Drops below altitude 10° 18:31:24 10° 158° (SSE) 2,297 6.2 -15.3°
Enters shadow 18:33:33 - 159° (SSE) 3,135 6.9 -15.6°
